www.pogodaiklimat.ru

Погода и климат >> Архив погоды >> Россия >> Владимирская область >> Вязники


ПОГОДА в Вязниках

  • Прогноз погоды в Вязниках
  • Монитор погоды в Вязниках

АРХИВ ПОГОДЫ в Вязниках

Время (UTC), дата Ветер
(напр.,м/с)
 
Видим.   Явления Облачность Т
(С)
Тd
(С)
f
(%)
Тe
(С)
Тes
(С)
Комфортность P
(гПа)
Po
(гПа)
Тmin
(С)
Tmax
(С)
R
(мм)
R24
(мм)
S
(см)
12 9.07 З 1 4000 м слаб. ливневой дождь 10/10 600 м
[Cb cap]
+17.1 +15.5 90 +18 +18 997.4 983.3
15 9.07 З 1 4000 м слаб. ливневой дождь 10/10 600 м
[Cb cap]
+15.9 +14.6 92 +17 +17 997.9 983.7 +18.2 0.7
18 9.07 штиль 0 4000 м дымка {ливн. осадки} 6/0
[Ac trans Ci fib]
+12.5 +12.4 99 +12 +12 998.4 984.0
21 9.07 ЮЗ 1 4000 м дымка 10/0
[Ac und]
+11.9 +11.8 99 +12 +12 998.1 983.7
00 10.07 ЮЗ 1 4000 м дымка 8/0
[Ac trans]
+11.8 +11.7 99 +12 +12 997.1 982.7
03 10.07 ЮЗ 1 4000 м дымка 8/0
[Ac trans Ci fib]
+12.5 +12.2 98 +12 +14 996.5 982.1 +11.1 0.0
06 10.07 ЮЗ 2 10 км 10/0
[Ci fib]
+17.8 +13.5 76 +18 +26 995.6 981.6
09 10.07 ЮЗ 3 10 км 10/6 1000 м
[Cu med, cong Ci fib]
+20.2 +12.4 61 +22 +27 комфорт 995.5 981.5
12 10.07 Ю 3
{10}
10 км 10/6 600 м
[Cb cap Ci fib]
+19.8 +12.5 63 +22 +25 комфорт 996.0 982.0
15 10.07 ЮЗ 1 10 км {гроза, ливн. осадки} 10/8 600 м
[Cb cap Ac trans]
+15.3 +14.1 93 +16 +16 997.1 982.7 +20.8 6
18 10.07 ЮЗ 1 10 км {гроза, ливн. осадки} 10/4 600 м
[Sc Ac trans Ci fib]
+13.7 +12.4 92 +14 +14 997.7 983.4
21 10.07 ЮЗ 1 4000 м дымка 10/10 600 м
[Sc]
+12.9 +12.0 94 +13 +13 997.5 983.1
00 11.07 штиль 0 4000 м слаб. ливневой дождь 10/10 600 м
[Cb cap]
+12.7 +12.6 99 +12 +12 997.8 983.5
03 11.07 штиль 0 2000 м дождь {ливн. осадки} 10/10 200 м
[Frnb Ns]
+12.5 +12.5 100 +12 +12 998.7 984.3 +11.9 4
06 11.07 штиль 0 4000 м слаб. ливневой дождь 10/10 600 м
[Cb cap]
+14.4 +13.2 92 +14 +14 999.7 985.4
09 11.07 Ю 1 4000 м слаб. ливневой дождь 10/10 600 м
[Cb cap]
+15.8 +13.8 88 +16 +16 1000.6 986.4
12 11.07 В 1 4000 м слаб. ливневой дождь 10/10 600 м
[Cb cap]
+15.6 +15.2 97 +16 +16 1000.4 986.2
15 11.07 С 1 10 км {ливн. осадки} 10/8 600 м
[Cb cap]
+16.3 +14.6 90 +17 +17 1001.6 987.3 +16.9 6
18 11.07 штиль 0 4000 м дымка {ливн. осадки} 10/10 300 м
[Sc]
+13.0 +12.9 99 +12 +12 1003.0 988.6
21 11.07 З 1 4000 м дымка 10/10 300 м
[Sc]
+12.1 +12.1 100 +12 +12 1003.7 989.2
00 12.07 штиль 0 4000 м дымка 10/10 300 м
[Sc]
+11.6 +11.6 100 +11 +11 1004.1 989.6
03 12.07 штиль 0 4000 м слаб. ливневой дождь 10/10 300 м
[Cb cap]
+11.4 +11.2 99 +11 +11 1004.9 990.4 +10.9 0.0
06 12.07 С 1 4000 м слаб. ливневой дождь 10/10 300 м
[Cb cap]
+12.5 +12.0 97 +12 +12 1005.9 991.5
09 12.07 СЗ 1 10 км {ливн. осадки} 10/10 600 м
[Cb cap]
+14.4 +11.9 85 +15 +15 1006.8 992.4
12 12.07 СЗ 1 10 км {ливн. осадки} 10/8 600 м
[Cb calv Ac und]
+15.7 +12.3 80 +16 +17 1007.2 992.9
15 12.07 СЗ 1 10 км 8/3 600 м
[Sc diur, vesp Ci fib]
+15.6 +11.4 76 +16 +18 1007.9 993.5 +17.2 0.0
18 12.07 штиль 0 10 км 3/0
[Ac trans Ci fib]
+10.5 +10.4 99 +10 +10 1008.3 993.7
21 12.07 штиль 0 4000 м дымка 3/0
[Ac trans Ci fib]
+8.4 +8.3 99 +7 +7 1008.5 993.7
00 13.07 штиль 0 4000 м дымка 6/6 600 м
[Sc]
+8.5 +8.4 99 +7 +7 1007.3 992.6
03 13.07 С 1 4000 м дымка 10/0
[Ac trans Ci fib]
+10.3 +10.3 100 +10 +11 1006.9 992.2 +7.6
06 13.07 СЗ 1 10 км 6/0
[Ac trans Ci fib]
+13.9 +11.3 84 +14 +22 1006.8 992.4
09 13.07 З 1 10 км 10/10 600 м
[Sc]
+16.5 +11.8 74 +17 +17 1007.1 992.8
12 13.07 З 1 10 км {ливн. осадки} 10/4 600 м
[Sc diur, vesp Ac trans]
+15.4 +11.9 80 +16 +19 1008.1 993.7
15 13.07 СЗ 1 10 км 8/0
[Ac trans]
+15.8 +11.5 76 +17 +18 1008.7 994.3 +17.7 0.0
18 13.07 штиль 0 10 км 4/0
[Ac trans]
+10.7 +10.4 98 +10 +10 1009.7 995.1
21 13.07 штиль 0 4000 м дымка 10/0
[Ac und]
+9.4 +9.4 100 +8 +8 1009.9 995.2
00 14.07 штиль 0 4000 м дымка 4/0
[Ci fib]
+6.3 +6.3 100 +5 +5 1010.6 995.7
03 14.07 штиль 0 4000 м дымка 6/0
[Ac trans Ci fib]
+9.0 +9.0 100 +8 +10 1010.7 996.0 +6.2
06 14.07 СЗ 1 10 км 3/0
[Ac trans Ci fib]
+18.1 +10.6 62 +19 +29 1010.4 996.1
09 14.07 СЗ 1 10 км 8/8 1000 м
[Cu med, cong Ac trans]
+20.1 +9.8 51 +23 +26 комфорт 1010.2 996.0
12 14.07 З 1 10 км 6/6 1000 м
[Cu med, cong]
+21.6 +9.0 44 +23 +28 комфорт 1009.9 995.8
15 14.07 СЗ 1 10 км 4/3 1000 м
[Cu med, cong Ac trans]
+20.8 +8.6 45 +23 +25 комфорт 1010.2 996.0 +21.8
18 14.07 штиль 0 10 км 8/0
[Ac trans]
+13.0 +11.1 88 +12 +12 1010.9 996.4
21 14.07 штиль 0 4000 м дымка 1/0
[Ac trans]
+9.6 +9.5 99 +9 +9 1011.4 996.7
00 15.07 штиль 0 4000 м дымка ясно +7.2 +7.1 99 +6 +6 1011.5 996.6
03 15.07 штиль 0 4000 м дымка 3/0
[Ci fib]
+9.4 +9.4 100 +8 +11 1011.4 996.7 +6.2
06 15.07 З 1 10 км 8/0
[Ci fib]
+19.3 +10.5 57 +21 +31 комфорт 1010.7 996.5
09 15.07 СЗ 1 10 км 8/4 1000 м
[Cu hum Ci fib]
+21.3 +10.9 51 +23 +32 комфорт 1010.0 995.9
12 15.07 СЗ 1 10 км 8/8 1000 м
[Cu med, cong]
+23.0 +10.7 46 +25 +28 комфорт 1009.7 995.7
15 15.07 З 1 10 км 8/3 1000 м
[Cu med, cong Ac trans]
+22.2 +10.9 49 +24 +25 комфорт 1009.8 995.7 +23.3
18 15.07 штиль 0 10 км 4/0
[Ac trans]
+13.6 +11.8 89 +13 +13 1010.8 996.3
21 15.07 штиль 0 10 км 10/0
[Ac und]
+14.0 +12.8 92 +14 +14 1011.1 996.6
00 16.07 штиль 0 4000 м дымка 10/0
[Ac und]
+11.2 +11.2 100 +10 +10 1011.4 996.8
03 16.07 штиль 0 4000 м дымка 10/0
[Ac und]
+12.6 +12.5 99 +12 +13 1012.1 997.5 +10.3
06 16.07 Ю 1 10 км 10/0
[Ac trans Ci fib]
+20.8 +13.6 63 +24 +30 комфорт 1011.8 997.6
09 16.07 ЮВ 1 10 км 10/4 1000 м
[Cu hum Ac trans Ci fib]
+23.0 +13.0 53 +26 +31 жарко 1011.7 997.7

 

Местоположение метеостанции Вязники (Владимирская область, Россия): широта 56.20 долгота 42.17 высота над уровнем моря 123 м.

В архиве по умолчанию представлена погода в Вязниках за последнюю неделю. Архивные данные за месяц целиком и за предыдущие месяцы, начиная с января 2011 года, Вы можете получить, выбрав интересующий диапазон дат из раскрывающегося списка и нажав кнопку "Ввод!".


*Определитесь, кто Вы:
робот инопланетянин человек

Внимание! Время в таблицах - всемирное. Для получения местного времени необходимо прибавить поправку, которая равна 3 ч.

Смотрите также архив погоды в соседних городах и на ближайших метеорологических станциях:

Погода в Коврове (Владимирская область, Россия) (54 км)
Погода в Павлово (Нижегородская область, Россия) (60 км)
Погода в Муроме (Владимирская область, Россия) (67 км)
Погода в Балахне (Нижегородская область, Россия) (70 км)
Погода в Пешном (Атырауская область, Казахстан) (86 км)
Погода в Шуе (Ивановская область, Россия) (86 км)
Погода в Волжской ГМО (Нижегородская область, Россия) (94 км)
Погода в Выксе (Нижегородская область, Россия) (97 км)
Погода в Нижнем Новгороде аэропорт (Нижегородская область, Россия) (99 км)
Погода в Суздале (Владимирская область, Россия) (108 км)

Пояснения к столбцам:

Ветер - указаны скорость ветра в м/с - средняя за 10 мин, порывы в срок и между сроками (в фигурных скобках) и направление, откуда дует ветер: С - северный, СВ - северо-восточный, В - восточный, ЮВ - юго-восточный, Ю - южный, ЮЗ - юго-западный, З - западный, СЗ - северо-западный.
Видимость - горизонтальная дальность видимости в метрах или километрах. При видимости от 1 до 10 км при отсутствии осадков обычно наблюдается дымка, при ухудшении видимости до 1 км и менее - туман. В сухую погоду видимость может ухудшаться дымом, пылью или мглою.
Явления - указаны атмосферные явления, наблюдавшиеся в срок или в последний час перед сроком; фигурными скобками обозначены явления, наблюдавшиеся между сроками (за 1-3 часа до срока); квадратными скобками обозначены град или гололедные отложения с указанием их диаметра в мм.
Облачность - указаны через наклонную черту общая и нижняя облачность в баллах и высота нижней границы облаков в метрах; квадратными скобками обозначены формы облаков: Ci - перистые, Cs - перисто-слоистые, Cc - перисто-кучевые, Ac - высококучевые, As - высокослоистые, Sc - слоисто-кучевые, Ns - слоисто-дождевые, Cu - кучевые, Cb - кучево-дождевые. Подробнее классификацию облаков см. в Атласе облаков (PDF).
T - Температура воздуха - температура, измеренная на высоте 2 м над землей.
Td - Температура точки росы - температура, при понижении до которой содержащийся в воздухе водяной пар достигнет насыщения.
f - Относительная влажность воздуха - влажноcть воздуха, измеренная на высоте 2 м над землей.
Te - Эффективная температура - температура, которую ощущает одетый по сезону человек в тени. Характеристика душности погоды. При расчете учитывается влияние влажности воздуха и скорости ветра на теплоощущения человека.
Tes - Эффективная температура на солнце - температура, которую ощущает человек, с поправкой на солнечный нагрев. Характеристика знойности погоды. Зависит от высоты солнца над горизонтом, облачности и скорости ветра. Ночью, в пасмурную погоду, а также при ветре 12 м/с и более поправка равна нулю.
P - Атмосферное давление - приведенное к уровню моря атмосферное давление.
Po - Атмосферное давление - измеренное на уровне метеостанции атмосферное давление.
Tmin - Минимальная температура - минимум температуры воздуха на высоте 2 м над землей.
Tmax - Максимальная температура - максимум температуры воздуха на высоте 2 м над землей.
R - Количество осадков - Количество выпавших осадков за период времени, мм. При наведении курсора мыши на число - период времени, за который выпало указанное количество осадков.
R24 - Количество осадков - Количество выпавших осадков за 24 часа, мм.
S - Снежный покров - Высота снежного покрова, см. При наведении курсора мыши на число - состояние снежного покрова и степень покрытия местности в баллах.